Tracking 19709 objects as of 17-Jun-2019
HD Live streaming from Space Station
objects crossing your sky now

SL-16 DEB

Track SL-16 DEB now!
10-day predictions


NORAD ID: 29105
Int'l Code: 2004-021G
Perigee: 821.8 km
Apogee: 1,123.8 km
Inclination: 70.9 °
Period: 104.4 minutes
Semi major axis: 7343 km
RCS: 0.0109 m2 (small)
Launch date: June 10, 2004
Source: Commonwealth of Independent States (former USSR) (CIS)
Launch site: TYURATAM MISSILE AND SPACE COMPLEX (TTMTR)

Note: This is SATELLITE DEBRIS
aabbcc
Your satellite tracking list
Your tracking list is empty




NASA's NSSDC Master Catalog

Two Line Element Set (TLE):
1 29105U 04021G   19164.96064827  .00000324  00000-0  30542-3 0  9993
2 29105  70.9269  21.4457 0205617 328.0094  30.8657 13.79500218748534
Source of the keplerian elements: AFSPC